Kars, Turkey

2:28 AM EET on February 06, 2016 (GMT +0200)
Kars

Weather History for LTCF - March, 2013

Change the Weather History Date:

Saturday, March 9, 2013

  Actual Average Record
Temperature  
Mean Temperature 22 °F -  
Max Temperature 35 °F 41 °F - ()
Min Temperature 10 °F 22 °F - ()
Degree Days  
Heating Degree Days 42    
Moisture  
Dew Point 17 °F    
Average Humidity 75    
Maximum Humidity 93    
Minimum Humidity 50    
Precipitation  
Precipitation 0.00 in 0.04 in - ()
Sea Level Pressure  
Sea Level Pressure 29.97 in    
Wind  
Wind Speed 3 mph ()    
Max Wind Speed 14 mph    
Max Gust Speed -    
Visibility 6.2 miles    
Events      
T = Trace of Precipitation, MM = Missing Value Source: Averaged Metar Reports

Daily Weather History Graph

Daily Weather History Graph

Search for Another Location

Airport or City:

Trip Planner

Search our weather history database for the weather conditions in past years. The results will help you decide how hot, cold, wet, or windy it might be!

Date:

Astronomy

Mar. 09, 2013 Rise Set
Actual Time 5:28 AM EET 5:07 PM EET
Civil Twilight 5:01 AM EET 5:34 PM EET
Nautical Twilight 4:30 AM EET 6:06 PM EET
Astronomical Twilight 3:58 AM EET 6:38 PM EET
Moon 3:39 AM EET (3/9) 2:44 PM EET (3/9)
Length of Visible Light 12h 33m
Length of Day
11h 38m
Waning Crescent, 7% of the Moon is Illuminated
Mar 9
Waning Crescent
Mar 11
New
Mar 19
First Quarter
Mar 27
Full
Apr 3
Last Quarter

Hourly Weather History & Observations

Time (EET) Temp. Windchill Dew Point Humidity Pressure Visibility Wind Dir Wind Speed Gust Speed Precip Events Conditions
12:50 AM 15.8 °F - 10.4 °F 79% 30.06 in 6.2 mi Variable 2.3 mph - N/A   Scattered Clouds
1:50 AM 15.8 °F - 10.4 °F 79% 30.06 in 6.2 mi Calm Calm - N/A   Scattered Clouds
2:00 AM 15 °F - 12 °F 82%  in 6 mi Calm Calm - -   Partly Cloudy
2:50 AM 15.8 °F - 12.2 °F 86% 30.06 in 6.2 mi Calm Calm - N/A   Scattered Clouds
4:50 AM 15.8 °F 6.1 °F 14.0 °F 93% 30.01 in 6.2 mi NE 6.9 mph - N/A   Scattered Clouds
5:50 AM 15.8 °F - 14.0 °F 93% 30.01 in 6.2 mi Variable 1.2 mph - N/A   Scattered Clouds
6:50 AM 17.6 °F - 14.0 °F 86% 30.01 in 6.2 mi Calm Calm - N/A   Mostly Cloudy
7:50 AM 19.4 °F - 14.0 °F 80% 30.01 in 6.2 mi NW 1.2 mph - N/A   Mostly Cloudy
8:00 AM 20 °F - 16 °F 77%  in 6 mi NW 1.2 mph - -   Mostly Cloudy
8:50 AM 23.0 °F - 15.8 °F 74% 30.01 in 6.2 mi Calm Calm - N/A   Mostly Cloudy
9:50 AM 24.8 °F - 17.6 °F 74% 29.98 in 6.2 mi Calm Calm - N/A   Mostly Cloudy
10:50 AM 24.8 °F - 17.6 °F 74% 29.98 in 6.2 mi Calm Calm - N/A   Mostly Cloudy
11:50 AM 32.0 °F - 17.6 °F 55% 29.95 in 6.2 mi Calm Calm - N/A   Mostly Cloudy
12:50 PM 30.2 °F 26.7 °F 21.2 °F 69% 29.92 in 6.2 mi NE 3.5 mph - N/A   Mostly Cloudy
1:50 PM 32.0 °F 23.0 °F 21.2 °F 64% 29.92 in 6.2 mi West 11.5 mph - N/A   Mostly Cloudy
2:00 PM 32 °F - 20 °F 50%  in 6 mi West 11.5 mph - -   Mostly Cloudy
2:50 PM 32.0 °F 22.1 °F 23.0 °F 69% 29.89 in 6.2 mi SW 13.8 mph - N/A   Mostly Cloudy
3:50 PM 30.2 °F 20.8 °F 23.0 °F 75% 29.89 in 6.2 mi SW 11.5 mph - N/A   Mostly Cloudy
4:50 PM 30.2 °F 21.9 °F 23.0 °F 75% 29.92 in 6.2 mi SW 9.2 mph - N/A   Mostly Cloudy
5:50 PM 28.4 °F 19.7 °F 21.2 °F 74% 29.92 in 6.2 mi SW 9.2 mph - N/A   Mostly Cloudy
6:50 PM 28.4 °F 23.3 °F 19.4 °F 69% 29.92 in 6.2 mi West 4.6 mph - N/A   Mostly Cloudy
7:50 PM 24.8 °F 20.5 °F 17.6 °F 74% 29.95 in 6.2 mi SSW 3.5 mph - N/A   Mostly Cloudy
8:00 PM 25 °F - 17 °F 63%  in 6 mi SSW 3.5 mph - -   Mostly Cloudy
8:50 PM 23.0 °F - 17.6 °F 80% 29.95 in 6.2 mi Calm Calm - N/A   Mostly Cloudy
9:50 PM 23.0 °F - 15.8 °F 74% 29.95 in 6.2 mi Variable 1.2 mph - N/A   Mostly Cloudy
10:50 PM 23.0 °F - 17.6 °F 80% 29.92 in 6.2 mi Calm Calm - N/A   Mostly Cloudy
11:50 PM 21.2 °F 14.9 °F 15.8 °F 80% 29.92 in 6.2 mi SSE 4.6 mph - N/A   Mostly Cloudy